Location: Mason Neck State Park
(38.6428°N, 77.1981°W)
Time: 16:49:19
(UTC-04:00)

Daily predictions for brighter satellites

Satellite Brightness Start Highest point End
(mag) Time Altitude Azimuth Time Altitude Azimuth Time Altitude Azimuth
Cosmos 1812 Rocket 3.7 19:19:44 10° S 19:24:02 80° W 19:28:24 10° N
Aureole 2 Rocket 3.6 19:20:45 10° SSE 19:24:45 36° ESE 19:28:45 10° NE
Cosmos 1624 Rocket 4.2 19:23:12 10° N 19:28:17 50° ENE 19:33:18 10° SE
ATLAS CENTAUR R/B 3.4 19:26:56 10° SSW 19:31:14 54° ESE 19:43:48 10° NE
Meteor 1-22 Rocket 4.2 19:28:41 10° S 19:33:56 55° E 19:39:06 10° NNE
Cosmos 2219 Rocket 3.7 19:31:10 10° SW 19:36:25 40° WNW 19:41:43 10° N
Cosmos 921 Rocket 3.9 19:33:02 10° NNW 19:37:08 51° WSW 19:41:10 10° S
Cosmos 2233 Rocket 4.2 19:31:17 10° S 19:37:34 80° W 19:43:56 10° N
Tiangong 2 3.9 19:36:17 10° WSW 19:37:48 13° SW 19:39:19 10° S
HJ-1C 4.2 19:35:33 10° SE 19:38:31 30° ENE 19:41:31 10° N
USA 215 3.3 19:32:40 10° NE 19:39:13 75° SE 19:45:43 10° SW
Cosmos 1441 Rocket 3.6 19:36:33 10° NNW 19:40:17 67° W 19:43:59 10° S
Cosmos 2278 Rocket 2.5 19:35:40 10° NNW 19:41:19 74° WSW 19:46:56 10° SSE
Meteor 2-5 Rocket 4.1 19:36:44 10° NNW 19:42:20 69° W 19:47:49 10° S
METEOR-M 4.3 19:38:33 10° SSE 19:43:42 52° ENE 19:48:54 10° N
Meteor 1-29 3.8 19:41:05 10° NE 19:44:11 29° E 19:47:17 10° SSE
Cosmos 2297 3.8 19:39:21 10° NNW 19:44:58 58° ENE 19:50:30 10° SE
Meteor 1-24 Rocket 3.6 19:41:17 10° N 19:46:58 74° E 19:52:25 10° SSE
Meteor 1-28 Rocket 3.1 19:43:20 10° NNE 19:47:04 83° ESE 19:50:47 10° S
Cosmos 1378 3.2 19:44:45 10° N 19:48:25 52° E 19:52:03 10° SSE
FENGYUN 3A 4.5 19:45:31 10° SE 19:50:07 30° ENE 19:54:46 10° N
SJ-6B 2.9 19:46:59 10° SSE 19:50:54 85° WSW 19:54:57 10° NNW
Cosmos 1707 3.6 19:47:17 10° NNW 19:51:04 54° W 19:54:49 10° S
Cosmos 1076 Rocket 3.9 19:48:24 10° N 19:52:32 43° E 19:56:40 10° SSE
Cosmos-2242 3.8 19:51:06 10° SSE 19:54:53 30° E 19:58:43 10° NNE
Cosmos 1452 Rocket 4.1 19:52:39 10° N 19:57:28 35° ENE 20:01:28 14° SE
Cosmos 1758 3.9 19:54:54 10° SSE 19:58:37 36° E 20:02:24 10° NNE
Cosmos 192 4.3 19:55:13 10° S 20:00:06 64° ESE 20:05:01 10° NNE
Cosmos 2369 Rocket 4.0 19:58:03 10° NNE 20:00:21 12° NE 20:01:47 11° ENE
Helios 1B rocket 2.3 19:56:47 10° NNE 20:00:52 65° ESE 20:04:56 10° S
Cosmos 1603 4.3 19:56:34 10° SSE 20:01:35 32° ESE 20:06:38 10° NE
SeaSat 1 3.3 19:59:52 10° NE 20:04:05 28° ESE 20:08:17 10° SSE
Cosmos 1408 Rocket 3.6 20:01:29 10° N 20:05:46 53° E 20:09:59 10° SSE
Resurs 01 Rocket 1.5 20:03:47 10° SSE 20:08:14 79° ENE 20:12:42 10° N
NOSS 3-2 (A) 3.5 20:04:46 10° SSW 20:10:49 87° NW 20:17:24 10° NNE
FengYun 1-2 T 4.2 20:05:55 10° SSE 20:11:21 65° ENE 20:16:48 10° N
Cosmos 2333 Rocket 4.3 20:06:46 10° WSW 20:11:42 28° WNW 20:16:39 10° N
Okean 3 Rocket 4.5 20:07:46 10° NNW 20:12:13 53° W 20:16:37 10° S
Resurs 1-3 3.5 20:07:57 10° SSE 20:12:17 67° ENE 20:16:40 10° N
CZ-4B DEB 3.1 20:15:35 34° ESE 20:16:27 43° ENE 20:19:34 10° N
Atlas Centaur 2 3.9 20:16:14 10° W 20:23:58 39° SSW 20:28:58 19° SE
ATLAS CENTAUR R/B 2.7 20:21:03 10° NW 20:24:54 37° WSW 20:28:27 10° S
Meteor 1-21 Rocket 4.2 20:21:05 10° N 20:26:36 60° ENE 20:31:13 15° SSE
GPS 2-04 Rocket1 4.5 20:26:09 10° SSW 20:27:41 16° S 20:27:41 16° S
ALOS 2.1 20:26:02 14° SSE 20:30:01 72° ENE 20:34:42 10° N
Cosmos 1743 Rocket 3.7 20:28:12 10° N 20:32:32 49° E 20:33:29 41° ESE
Cosmos 1269 Rocket 4.2 20:27:38 10° S 20:32:40 48° ESE 20:37:44 10° NNE
In-Cosmos 22 4.3 20:27:17 10° N 20:33:05 87° W 20:38:50 10° S
Cosmos 1674 3.9 20:30:01 10° NNE 20:32:22 27° NE 20:32:22 27° NE
Nadezhda 4 Rocket 4.0 20:27:30 10° N 20:33:44 61° E 20:38:48 15° SSE
Spot 2 Rocket 4.3 20:33:05 10° S 20:38:00 52° W 20:42:55 10° NNW
Cosmos 1092 Rocket 4.2 20:32:40 10° N 20:38:40 47° ENE 20:40:56 33° SE
ASTRO E2 3.9 20:35:13 10° WSW 20:38:44 29° S 20:38:55 29° S
Cosmos 1048 Rocket 4.2 20:34:30 10° S 20:39:35 47° ESE 20:44:38 10° NNE
GP-B 4.2 20:36:36 10° NNE 20:39:11 28° NE 20:39:11 28° NE
NOSS 3-3 (A) 4.5 20:35:45 10° NW 20:43:18 87° WSW 20:48:48 22° SSE
NOSS 3-3 (C) 4.5 20:35:51 10° NW 20:43:24 88° WSW 20:48:51 23° SSE
OAO 3 Rocket 3.3 20:40:39 10° WSW 20:45:20 56° S 20:46:04 50° SE
Helios 1A 4.3 20:42:13 10° S 20:46:09 40° W 20:50:07 10° NNW
NOSS 3-2 (C) 3.9 20:41:52 10° SW 20:47:52 61° NW 20:54:25 10° NNE
Envisat 4.2 20:50:02 26° NE 20:50:02 26° NE 20:53:13 10° N
CENTAUR R/B 3.3 20:45:42 10° S 20:48:51 28° SSE 20:48:51 28° SSE
Cosmos 1634 Rocket 4.1 20:49:16 37° SE 20:51:13 49° E 20:57:09 10° NNE
ATLAS 5 CENTAUR R/B 2.3 20:47:19 10° SW 20:52:01 60° NW 20:57:07 10° NNE
ASTEX 1 3.3 20:47:48 10° N 20:52:45 87° W 20:57:37 10° S
CZ-2D R/B 3.4 20:52:09 52° SSW 20:52:57 73° WSW 20:56:53 10° NNW
Cosmos 1953 3.5 20:50:23 10° SSW 20:54:11 42° W 20:58:00 10° N
SL-16 R/B 4.0 20:53:36 10° WSW 20:58:36 31° WNW 21:03:39 10° N
H-2A R/B 3.9 21:12:11 38° WSW 21:12:46 41° W 21:16:29 10° NNW
Cosmos 2195 Rocket 4.5 21:10:40 10° N 21:16:42 62° ENE 21:16:42 62° ENE
ERS-1 Rocket 3.8 21:34:40 45° NNW 21:34:40 45° NNW 21:38:07 10° NNW
Cosmos 1627 Rocket 4.5 21:31:20 10° N 21:36:58 75° N 21:36:58 75° N
SeaSat 1 3.9 21:37:07 10° N 21:41:37 36° WNW 21:46:05 10° WSW
Cosmos 2369 Rocket 2.9 21:39:36 10° NNW 21:43:35 47° NNW 21:43:35 47° NNW
Cosmos 839 Rocket 4.3 21:42:29 10° NNW 21:49:20 70° N 21:49:20 70° N
Cosmos 1943 Rocket 3.9 21:51:30 10° N 21:53:52 24° N 21:53:52 24° N
